Date,TemperatureHighF,TemperatureAvgF,TemperatureLowF,DewpointHighF,DewpointAvgF,DewpointLowF,HumidityHigh,HumidityAvg,HumidityLow,PressureMaxIn,PressureMinIn,WindSpeedMaxMPH,WindSpeedAvgMPH,GustSpeedMaxMPH,PrecipitationSumIn
2014-1-1,33.6,29.9,24.4,21.0,16.3,8.0,65,57,48,30.40,30.24,6,2,13,0.00
2014-1-2,32.4,26.8,18.2,26.0,22.9,17.0,94,85,65,30.23,29.65,16,7,22,0.00
2014-1-3,18.9,13.9,10.9,16.0,7.4,-2.0,93,77,54,30.46,29.61,17,4,18,0.00
2014-1-4,28.6,20.4,10.1,18.0,7.9,1.0,75,60,40,30.52,30.29,6,1,11,0.00
2014-1-5,49.6,33.1,26.5,49.0,30.1,19.0,99,89,70,30.30,29.75,7,1,12,0.12
2014-1-6,52.0,42.7,20.4,52.0,36.7,5.0,99,81,51,29.73,29.40,13,4,25,0.32
2014-1-7,18.2,9.0,4.6,0.0,-7.7,-12.0,54,47,39,30.39,29.73,13,5,26,0.00
2014-1-8,22.7,15.0,8.4,7.0,-5.7,-99.9,61,49,44,30.56,30.39,11,-65,17,0.00
2014-1-9,34.3,26.6,22.8,19.0,12.5,7.0,66,56,42,30.64,30.48,5,1,10,0.00
2014-1-10,37.3,34.1,29.4,36.0,29.7,19.0,97,85,66,30.57,30.20,2,0,3,0.15
2014-1-11,56.6,49.9,36.5,56.0,49.2,36.0,99,97,94,30.19,29.32,10,3,24,0.49
2014-1-12,54.1,44.6,38.3,52.0,33.3,28.0,93,65,51,30.06,29.38,8,3,14,0.01
2014-1-13,49.8,42.6,36.0,42.0,35.8,29.0,86,77,67,30.14,29.89,9,2,14,0.00
2014-1-14,48.8,46.0,43.4,47.0,43.9,40.0,95,92,83,29.89,29.65,6,1,10,0.38
2014-1-15,43.3,40.4,35.3,42.0,39.0,35.0,98,95,87,30.00,29.83,5,1,10,0.01
2014-1-16,42.9,40.2,37.0,41.0,33.8,31.0,97,78,70,29.93,29.83,5,1,9,0.00
2014-1-17,46.5,39.5,32.9,33.0,28.9,23.0,84,66,55,29.98,29.86,10,1,12,0.00
2014-1-18,41.2,36.9,28.3,36.0,29.9,19.0,94,76,65,29.86,29.65,8,2,13,0.12
2014-1-19,38.0,31.5,24.7,25.0,20.2,15.0,71,63,52,29.84,29.65,9,3,15,0.00
2014-1-20,47.0,40.2,33.4,31.0,26.3,20.0,70,58,46,29.88,29.56,11,4,18,0.00
2014-1-21,32.7,20.3,11.6,19.0,13.1,8.0,91,76,47,29.98,29.80,14,5,19,0.00
2014-1-22,18.2,11.7,7.1,8.0,-8.2,-99.9,85,55,47,29.98,29.76,14,-88,17,0.00
2014-1-23,21.5,13.5,8.7,7.0,-10.0,-99.9,69,51,49,30.28,29.98,9,-127,16,0.00
2014-1-24,21.0,15.8,11.1,6.0,1.7,-1.0,63,54,42,30.38,30.10,11,3,17,0.00
2014-1-25,28.9,20.9,19.2,24.0,-1.4,-99.9,90,59,53,30.08,29.44,11,-142,19,0.00
2014-1-26,32.5,20.7,18.0,22.0,-4.1,-99.9,81,50,43,29.90,29.46,14,-132,19,0.00
2014-1-27,44.6,34.1,21.5,31.0,19.2,0.0,79,56,30,30.07,29.61,9,2,19,0.00
2014-1-28,21.1,15.8,13.6,5.0,-15.2,-99.9,56,35,32,30.37,30.07,6,-125,14,0.00
2014-1-29,23.6,18.8,15.1,12.0,4.1,-2.0,84,55,36,30.29,30.09,9,2,16,0.00
2014-1-30,30.0,23.3,17.5,18.0,8.4,3.0,69,54,37,30.45,30.19,10,1,10,0.00
2014-1-31,41.5,33.3,25.7,20.0,16.4,11.0,62,51,37,30.22,30.09,6,1,10,0.00
2014-2-1,44.3,34.2,35.7,37.0,9.1,-99.9,91,53,41,30.32,30.01,5,-136,10,0.00
2014-2-2,57.4,46.0,38.3,40.0,37.9,35.0,94,75,48,30.06,29.90,7,1,10,0.00
2014-2-3,43.8,33.1,28.6,37.0,31.0,25.0,97,92,76,30.30,30.05,9,1,10,0.09
2014-2-4,36.6,30.2,25.1,27.0,24.1,21.0,86,78,63,30.45,30.24,4,0,6,0.01
2014-2-5,34.7,32.3,29.5,34.0,30.9,27.0,97,94,80,30.22,29.62,7,2,13,0.00
2014-2-6,32.1,27.7,23.3,28.0,20.1,16.0,86,73,57,30.28,29.96,9,2,12,0.00
2014-2-7,33.0,28.7,24.6,21.0,17.8,15.0,77,64,54,30.32,30.21,8,2,15,0.00
2014-2-8,30.5,26.6,22.9,15.0,9.7,5.0,60,49,39,30.33,30.13,7,1,12,0.00
2014-2-9,31.3,26.5,21.9,25.0,14.8,7.0,90,63,48,30.18,29.99,6,1,9,0.00
2014-2-10,30.3,25.5,21.9,23.0,13.6,9.0,87,62,46,30.27,29.98,8,2,16,0.00
2014-2-11,27.1,22.0,17.5,11.0,7.6,6.0,63,55,44,30.46,30.27,7,2,11,0.00
2014-2-12,25.4,20.2,14.2,18.0,8.7,3.0,77,62,43,30.56,30.28,11,2,13,0.00
2014-2-13,34.2,31.4,23.8,34.0,30.6,18.0,98,96,78,30.27,28.99,22,7,28,0.81
2014-2-14,40.9,35.9,30.4,33.0,29.1,27.0,98,78,60,29.77,29.00,19,4,24,0.14
2014-2-15,37.1,33.6,26.9,31.0,27.8,19.0,96,80,64,29.78,29.55,12,3,21,0.01
2014-2-16,30.4,25.6,21.4,19.0,14.1,11.0,71,62,49,30.09,29.73,9,3,16,0.00
2014-2-17,33.8,26.0,18.4,15.0,8.4,4.0,67,49,33,30.37,30.09,12,2,14,0.00
2014-2-18,40.6,34.0,28.7,36.0,26.6,10.0,95,75,44,30.32,29.94,6,2,19,0.16
2014-2-19,46.9,39.6,32.8,44.0,35.2,25.0,95,84,66,30.09,29.68,4,1,18,0.27
2014-2-20,50.5,42.1,37.5,38.0,31.4,28.0,94,67,44,30.24,29.98,5,2,10,0.03
2014-2-21,48.9,40.5,35.7,49.0,39.1,35.0,99,95,84,30.00,29.64,6,2,24,0.12
2014-2-22,56.8,47.3,39.1,38.0,29.1,23.0,89,53,27,30.04,29.91,12,3,21,0.00
2014-2-23,56.4,49.0,43.1,34.0,30.9,29.0,69,51,36,30.01,29.83,8,1,12,0.00
2014-2-24,42.7,36.1,27.6,34.0,18.8,9.0,79,51,32,30.07,29.79,12,3,15,0.01
2014-2-25,33.0,29.1,26.0,17.0,12.1,8.0,55,49,43,30.08,29.91,10,2,17,0.00
2014-2-26,31.8,27.0,21.5,26.0,11.7,-2.0,89,55,35,29.96,29.80,7,2,15,0.02
2014-2-27,33.1,25.0,14.4,19.0,6.0,-12.0,65,45,30,30.09,29.61,11,3,20,0.00
2014-2-28,26.2,17.1,10.4,2.0,-14.2,-99.9,50,33,30,30.42,30.10,8,-113,14,0.00
2014-3-1,39.5,28.0,21.3,30.0,3.0,-99.9,78,48,38,30.41,30.14,7,-115,11,0.00
2014-3-2,42.3,32.7,33.9,28.0,6.3,-99.9,70,48,49,30.14,29.96,3,-134,8,0.00
2014-3-3,33.8,22.2,19.4,21.0,3.9,-99.9,86,52,44,30.32,29.98,8,-39,13,0.00
2014-3-4,30.1,22.7,13.6,14.0,6.5,0.0,60,50,31,30.42,30.24,8,2,11,0.00
2014-3-5,39.5,32.0,26.7,14.0,11.9,8.0,57,44,34,30.43,30.19,12,2,15,0.00
2014-3-6,31.1,23.1,16.4,14.0,1.5,-99.9,61,48,38,30.62,30.42,13,-62,16,0.00
2014-3-7,36.3,31.6,26.2,32.0,23.9,13.0,86,74,58,30.46,29.90,12,4,14,0.00
2014-3-8,58.4,46.3,35.9,34.0,31.4,29.0,86,59,36,29.89,29.74,8,2,12,0.00
2014-3-9,45.2,41.3,37.2,30.0,19.9,12.0,63,44,29,30.00,29.87,8,2,14,0.00
2014-3-10,52.0,42.9,36.5,37.0,26.7,16.0,81,54,39,29.93,29.60,8,2,13,0.00
2014-3-11,66.4,54.3,44.3,40.0,36.4,32.0,66,52,35,29.68,29.55,7,2,12,0.00
2014-3-12,55.2,49.4,37.6,52.0,43.0,32.0,97,79,58,29.66,28.99,10,1,17,0.32
2014-3-13,35.9,24.8,18.6,30.0,6.1,-1.0,78,47,29,30.07,29.14,12,5,20,0.00
2014-3-14,44.1,33.3,22.1,29.0,14.5,1.0,66,47,31,30.22,29.89,11,3,17,0.00
2014-3-15,58.6,50.9,40.9,34.0,29.1,24.0,74,45,27,29.97,29.74,12,3,19,0.00
2014-3-16,45.2,33.5,31.2,27.0,4.0,-99.9,51,35,29,30.18,29.98,10,-71,13,0.00
2014-3-17,33.0,26.1,24.3,9.0,-6.0,-99.9,48,34,29,30.12,30.02,12,-116,17,0.00
2014-3-18,43.4,31.7,28.1,28.0,7.7,-99.9,77,48,30,30.28,30.11,8,-84,14,0.00
2014-3-19,45.1,38.2,31.2,44.0,32.8,26.0,96,81,68,30.31,29.82,13,3,18,0.61
2014-3-20,54.9,47.0,41.1,45.0,34.0,24.0,97,65,35,29.89,29.72,16,4,18,0.03
2014-3-21,53.6,46.7,39.0,25.0,21.9,20.0,52,38,27,30.04,29.89,10,3,15,0.00
2014-3-22,64.5,50.7,39.7,41.0,31.4,22.0,81,50,27,30.05,29.74,13,3,19,0.00
2014-3-23,44.8,39.5,29.0,27.0,19.0,8.0,58,45,27,30.10,29.96,9,2,12,0.00
2014-3-24,35.6,28.6,21.7,9.0,6.4,5.0,53,40,29,30.23,30.09,13,2,18,0.00
2014-3-25,38.3,32.0,26.7,23.0,14.5,7.0,69,49,38,30.15,29.84,9,2,12,0.00
2014-3-26,36.9,32.6,25.2,25.0,11.7,3.0,75,44,28,30.20,29.71,16,4,23,0.00
2014-3-27,41.1,32.5,22.8,27.0,14.0,6.0,60,48,28,30.41,30.22,10,3,14,0.00
2014-3-28,60.8,48.7,36.9,51.0,40.8,23.0,85,74,56,30.26,29.95,9,2,15,0.03
2014-3-29,57.7,48.2,43.7,51.0,44.7,42.0,97,88,77,30.17,29.67,9,3,11,1.92
2014-3-30,47.2,44.6,39.7,47.0,43.1,37.0,99,94,87,29.65,29.44,14,5,22,0.89
2014-3-31,55.9,43.9,36.0,37.0,34.8,28.0,93,72,47,30.07,29.64,15,5,22,0.10
2014-4-1,59.5,46.8,39.3,36.0,31.3,28.0,72,56,38,30.11,29.97,8,2,15,0.00
2014-4-2,53.2,45.6,41.0,45.0,40.8,34.0,93,84,71,30.13,30.04,6,1,7,0.02
2014-4-3,63.8,52.3,44.7,43.0,34.7,25.0,91,56,23,30.12,29.98,6,1,10,0.01
2014-4-4,45.8,42.0,39.5,42.0,38.7,37.0,97,88,78,30.07,29.73,10,3,12,0.15
2014-4-5,55.7,47.0,39.2,43.0,34.4,25.0,97,66,38,30.05,29.70,12,4,19,0.03
2014-4-6,59.8,45.7,36.3,33.0,25.5,21.0,65,48,23,30.20,30.05,8,2,13,0.00
2014-4-7,50.7,46.6,42.3,48.0,38.6,28.0,97,75,44,30.20,29.69,9,2,11,0.50
2014-4-8,65.4,55.0,47.7,58.0,45.6,35.0,99,74,44,29.66,29.39,11,3,18,0.28
2014-4-9,62.6,53.1,45.1,37.0,31.2,18.0,71,46,27,30.01,29.60,14,3,16,0.00
2014-4-10,55.7,50.3,42.3,41.0,27.1,16.0,65,42,28,30.21,30.02,11,3,22,0.00
2014-4-11,75.1,61.4,50.3,52.0,44.5,35.0,74,55,37,30.02,29.92,8,2,14,0.00
2014-4-12,71.6,60.1,51.3,52.0,42.1,35.0,84,55,26,30.21,29.98,9,2,14,0.00
2014-4-13,73.7,60.5,50.9,55.0,49.2,37.0,88,68,51,30.18,29.96,7,2,14,0.00
2014-4-14,71.8,60.5,53.8,57.0,52.9,50.0,93,77,57,30.01,29.85,15,3,19,0.00
2014-4-15,58.5,52.5,35.3,57.0,51.1,34.0,98,95,88,29.88,29.52,13,4,24,0.72
2014-4-16,48.5,39.6,31.3,33.0,22.3,18.0,94,53,32,30.55,29.89,13,3,22,0.19
2014-4-17,46.4,40.8,36.1,33.0,27.7,20.0,77,60,44,30.71,30.55,8,3,14,0.00
2014-4-18,47.4,40.9,35.6,36.0,31.7,28.0,82,70,58,30.60,30.26,5,1,8,0.00
2014-4-19,66.4,54.1,40.9,40.0,32.3,23.0,85,50,21,30.32,30.20,7,2,15,0.00
2014-4-20,54.7,49.8,45.0,36.0,29.8,27.0,63,47,36,30.48,30.32,8,3,16,0.00
2014-4-21,63.4,51.7,40.7,43.0,33.8,27.0,78,53,29,30.31,29.87,7,1,11,0.00
2014-4-22,68.0,58.7,49.4,54.0,49.2,43.0,86,72,54,29.87,29.49,9,2,13,0.00
2014-4-23,60.9,54.0,44.9,52.0,38.8,31.0,74,57,41,29.81,29.47,11,4,22,0.00
2014-4-24,62.6,52.2,42.3,32.0,20.4,14.0,63,33,16,30.00,29.81,19,3,19,0.00
2014-4-25,60.3,51.9,45.4,43.0,28.0,20.0,79,42,26,30.03,29.76,11,2,15,0.00
2014-4-26,66.2,52.3,45.3,48.0,45.1,41.0,96,79,42,29.86,29.69,8,2,13,0.86
2014-4-27,60.5,53.6,47.1,46.0,36.5,34.0,89,54,39,30.10,29.85,9,2,15,0.00
2014-4-28,65.2,54.8,46.6,44.0,36.8,30.0,74,53,28,30.11,29.99,8,2,11,0.00
2014-4-29,50.7,46.8,42.6,43.0,39.9,38.0,88,77,67,30.40,30.11,10,3,19,0.08
2014-4-30,53.3,45.6,41.0,53.0,44.3,38.0,98,95,84,30.39,29.96,9,3,13,5.30
2014-5-1,78.1,63.5,50.6,65.0,56.9,50.0,99,82,44,29.95,29.66,4,1,12,0.44
2014-5-2,69.2,63.1,56.7,56.0,43.8,36.0,81,52,31,29.83,29.69,8,2,14,0.00
2014-5-3,69.5,60.8,53.7,51.0,43.1,39.0,79,54,36,29.87,29.73,8,2,13,0.02
2014-5-4,65.3,58.4,54.2,51.0,40.1,27.0,83,53,29,29.78,29.63,12,4,21,0.00
2014-5-5,69.8,59.5,49.9,39.0,33.1,24.0,65,40,21,29.88,29.77,9,3,16,0.00
2014-5-6,71.0,61.2,53.5,38.0,32.8,27.0,55,36,23,30.04,29.85,5,2,14,0.00
2014-5-7,68.1,58.9,52.3,44.0,33.9,29.0,59,40,26,30.22,30.06,9,2,15,0.00
2014-5-8,57.1,54.9,52.4,55.0,52.2,43.0,96,91,60,30.18,30.07,7,1,10,0.44
2014-5-9,62.3,58.2,54.3,60.0,57.1,53.0,99,96,91,30.17,29.99,7,1,10,0.20
2014-5-10,83.0,66.3,54.6,67.0,60.8,54.0,100,84,52,29.99,29.81,8,2,17,0.39
2014-5-11,83.1,72.0,61.3,63.0,48.1,39.0,95,48,21,30.05,29.85,6,1,13,0.16
2014-5-12,83.2,72.6,61.9,64.0,56.0,50.0,74,57,38,30.10,30.00,8,1,11,0.00
2014-5-13,72.3,64.4,51.6,64.0,51.2,42.0,89,64,40,30.28,29.99,8,2,14,0.00
2014-5-14,67.1,57.7,51.0,59.0,51.9,45.0,94,81,65,30.30,30.22,6,1,9,0.00
2014-5-15,70.4,63.2,59.4,65.0,61.8,58.0,98,95,84,30.23,30.07,7,2,14,0.14
2014-5-16,66.6,63.8,61.4,65.0,62.8,61.0,99,96,92,30.07,29.79,14,4,26,2.13
2014-5-17,71.1,62.8,53.8,60.0,47.2,39.0,97,61,36,30.09,29.82,7,1,14,0.00
2014-5-18,68.5,61.0,53.7,44.0,38.7,34.0,65,45,33,30.17,30.08,6,2,11,0.00
2014-5-19,72.6,62.6,51.8,43.0,36.3,31.0,51,39,26,30.20,30.04,7,1,13,0.00
2014-5-20,79.6,68.6,56.6,45.0,40.4,34.0,62,39,21,30.11,29.94,7,1,10,0.00
2014-5-21,76.1,69.4,63.1,56.0,50.4,44.0,77,52,40,29.98,29.88,7,1,9,0.00
2014-5-22,65.1,60.6,58.2,60.0,57.8,57.0,95,90,78,29.88,29.79,4,1,9,0.46
2014-5-23,69.5,61.5,56.8,60.0,57.4,55.0,96,87,64,29.93,29.82,4,1,8,0.73
2014-5-24,69.8,60.8,56.8,57.0,55.4,53.0,96,83,59,30.07,29.89,6,1,8,0.24
2014-5-25,82.0,68.3,55.3,58.0,54.0,44.0,96,65,27,30.08,29.99,5,1,11,0.00
2014-5-26,87.8,76.8,65.0,57.0,52.5,49.0,70,45,28,30.04,29.87,10,2,15,0.00
2014-5-27,88.4,79.0,70.7,67.0,59.8,56.0,71,53,37,29.88,29.74,9,2,14,0.00
2014-5-28,73.2,58.4,53.8,64.0,53.2,47.0,89,83,70,30.15,29.77,10,2,12,0.00
2014-5-29,64.0,55.9,51.6,49.0,46.0,43.0,80,70,57,30.21,30.14,8,2,10,0.00
2014-5-30,76.8,64.6,55.0,58.0,51.1,44.0,84,63,45,30.14,29.96,6,1,11,0.01
2014-5-31,71.0,63.5,57.8,54.0,50.1,45.0,80,63,44,30.28,30.05,12,3,17,0.00
2014-6-1,77.7,66.5,55.8,49.0,42.9,36.0,75,46,23,30.34,30.24,9,1,11,0.00
2014-6-2,79.7,71.0,59.2,59.0,51.0,40.0,64,50,38,30.25,30.00,7,3,13,0.00
2014-6-3,85.5,73.9,65.4,70.0,62.0,56.0,93,68,48,30.01,29.80,6,2,16,0.12
2014-6-4,81.7,70.4,61.8,65.0,62.7,60.0,94,78,50,29.84,29.72,5,1,15,0.00
2014-6-5,77.8,67.8,60.8,64.0,59.4,51.0,97,77,42,29.77,29.62,8,2,15,0.60
2014-6-6,77.2,69.1,61.1,53.0,51.5,48.0,67,54,42,29.92,29.77,5,1,12,0.00
2014-6-7,83.4,72.8,61.8,58.0,54.4,52.0,73,54,34,29.98,29.90,5,1,8,0.00
2014-6-8,86.1,75.6,65.5,61.0,57.5,53.0,76,55,33,29.94,29.85,7,2,16,0.00
2014-6-9,72.0,66.7,62.6,66.0,62.5,55.0,97,87,56,29.94,29.88,5,1,12,1.44
2014-6-10,78.0,71.1,64.7,70.0,67.3,64.0,97,88,76,29.96,29.90,4,1,7,0.00
2014-6-11,70.7,66.1,62.0,67.0,61.0,58.0,95,84,70,30.10,29.96,5,1,10,0.03
2014-6-12,74.0,66.1,60.2,70.0,64.0,58.0,97,92,86,30.07,29.90,5,1,12,0.01
2014-6-13,80.1,69.7,65.0,72.0,67.8,65.0,99,94,75,29.90,29.70,4,1,14,1.33
2014-6-14,76.2,69.5,61.2,68.0,58.7,49.0,98,71,45,30.01,29.75,10,2,15,0.00
2014-6-15,82.2,71.0,60.1,57.0,54.4,52.0,77,58,40,30.08,30.01,5,1,13,0.00
2014-6-16,80.1,71.9,64.3,64.0,58.5,53.0,84,64,40,30.14,30.04,5,1,12,0.00
2014-6-17,90.7,79.0,68.5,72.0,67.4,63.0,85,68,50,30.05,29.86,10,1,12,0.00
2014-6-18,90.9,84.6,78.8,71.0,65.2,59.0,76,54,36,29.94,29.78,9,2,15,0.00
2014-6-19,79.6,74.5,69.9,68.0,65.5,62.0,85,74,58,29.99,29.91,6,1,10,0.03
2014-6-20,82.0,74.4,66.3,66.0,49.2,42.0,84,43,27,29.99,29.87,7,2,10,0.00
2014-6-21,77.0,70.0,62.7,59.0,50.3,46.0,79,51,38,29.96,29.87,8,1,12,0.00
2014-6-22,79.7,70.8,63.5,59.0,56.0,52.0,82,61,41,30.01,29.89,9,1,14,0.00
2014-6-23,84.4,73.0,63.4,63.0,58.5,55.0,82,62,39,30.13,30.01,8,1,15,0.00
2014-6-24,79.8,73.1,67.2,65.0,62.1,58.0,83,69,55,30.14,30.01,11,2,18,0.00
2014-6-25,83.6,74.9,69.5,73.0,69.5,61.0,94,83,70,30.02,29.82,12,2,18,0.00
2014-6-26,86.6,78.4,70.4,71.0,68.7,64.0,95,74,55,29.95,29.78,5,1,9,0.09
2014-6-27,82.8,73.8,68.5,67.0,62.0,56.0,87,68,44,30.20,29.95,9,1,11,0.00
2014-6-28,86.8,75.3,66.6,62.0,58.6,48.0,79,59,27,30.26,30.20,5,1,11,0.00
2014-6-29,81.1,74.4,67.4,64.0,58.8,54.0,74,59,46,30.25,30.11,8,2,13,0.00
2014-6-30,84.5,75.8,68.0,69.0,65.7,58.0,91,72,50,30.11,29.93,10,2,14,0.00
2014-7-1,88.2,79.4,71.6,73.0,69.6,65.0,89,73,59,29.95,29.80,9,3,17,0.00
2014-7-2,89.3,80.1,71.9,76.0,71.7,68.0,94,76,60,29.96,29.81,9,2,18,1.13
2014-7-3,88.4,78.2,70.1,75.0,72.5,68.0,96,83,65,30.03,29.85,10,1,17,0.37
2014-7-4,74.5,70.5,65.7,70.0,64.0,54.0,94,81,57,29.99,29.87,7,3,14,0.11
2014-7-5,83.8,73.8,63.7,57.0,52.4,50.0,66,49,32,30.13,29.99,8,2,15,0.00
2014-7-6,88.1,77.6,66.4,63.0,56.5,54.0,68,50,32,30.09,29.91,9,3,18,0.00
2014-7-7,94.2,82.7,72.4,68.0,65.1,63.0,75,57,37,29.92,29.71,12,3,20,0.00
2014-7-8,94.0,82.9,74.3,71.0,69.0,64.0,83,64,43,29.83,29.64,18,3,28,0.01
2014-7-9,89.7,80.0,72.0,72.0,67.0,61.0,83,66,41,29.93,29.76,7,2,12,0.00
2014-7-10,85.6,76.0,71.8,68.0,63.4,61.0,87,66,44,30.12,29.92,7,1,10,0.07
2014-7-11,86.5,76.5,69.5,67.0,61.8,53.0,87,62,39,30.20,30.10,5,1,11,0.00
2014-7-12,86.3,76.4,69.2,68.0,64.8,58.0,91,69,42,30.21,30.11,8,2,14,0.00
2014-7-13,81.4,75.2,70.7,72.0,69.4,65.0,90,82,71,30.12,29.88,9,2,17,0.01
2014-7-14,85.6,76.2,70.7,75.0,71.5,69.0,96,86,66,29.93,29.80,6,1,13,1.25
2014-7-15,86.2,74.8,70.0,76.0,71.9,69.0,97,91,71,29.81,29.71,5,1,9,1.14
2014-7-16,85.2,75.1,69.2,71.0,63.1,56.0,97,70,41,29.86,29.73,5,1,11,0.01
2014-7-17,83.3,75.2,67.6,60.0,57.3,53.0,69,55,41,30.08,29.85,4,1,12,0.00
2014-7-18,83.2,74.8,66.1,59.0,54.6,46.0,75,52,31,30.21,30.08,5,1,7,0.00
2014-7-19,79.4,73.7,69.1,62.0,57.6,54.0,74,58,48,30.23,30.16,5,1,10,0.00
2014-7-20,77.9,71.5,67.1,65.0,62.3,58.0,83,73,56,30.15,30.08,5,1,8,0.00
2014-7-21,84.8,74.4,65.7,67.0,63.8,61.0,89,71,46,30.18,30.11,6,1,10,0.00
2014-7-22,89.0,78.5,70.1,70.0,66.2,60.0,78,66,54,30.16,30.03,8,2,13,0.00
2014-7-23,90.5,80.4,72.0,75.0,70.1,63.0,89,71,61,30.02,29.75,7,2,13,0.10
2014-7-24,82.3,76.1,73.1,72.0,63.2,56.0,90,66,46,29.88,29.77,5,1,9,0.00
2014-7-25,85.4,75.3,67.0,64.0,57.1,53.0,74,55,35,30.00,29.88,7,1,12,0.00
2014-7-26,83.5,75.2,69.0,70.0,63.9,58.0,85,69,44,29.99,29.88,8,1,10,0.00
2014-7-27,89.1,78.9,71.0,74.0,70.3,68.0,91,76,50,29.88,29.62,7,2,11,0.01
2014-7-28,85.3,76.4,68.8,73.0,65.7,59.0,94,71,47,29.66,29.50,12,3,19,0.45
2014-7-29,77.9,70.8,64.3,59.0,54.4,49.0,73,57,40,29.95,29.67,5,1,11,0.00
2014-7-30,82.6,72.9,64.7,62.0,54.9,49.0,72,55,32,30.02,29.93,6,1,12,0.00
2014-7-31,83.6,74.9,65.9,68.0,62.1,57.0,79,65,47,30.12,30.02,10,2,15,0.00
2014-8-1,85.4,75.7,71.1,71.0,67.9,64.0,87,77,57,30.20,30.13,6,1,13,0.00
2014-8-2,73.8,69.4,63.7,68.0,64.0,62.0,94,83,71,30.18,30.08,6,1,12,0.41
2014-8-3,76.6,70.1,65.4,67.0,65.0,62.0,95,84,67,30.11,30.01,4,0,6,0.11
2014-8-4,85.4,76.8,69.7,70.0,68.2,67.0,91,76,55,30.05,30.00,9,1,12,0.00
2014-8-5,90.0,79.8,71.0,69.0,66.4,64.0,85,65,43,30.02,29.88,5,1,10,0.00
2014-8-6,85.3,77.1,71.4,66.0,62.3,57.0,79,62,41,29.88,29.81,6,1,8,0.00
2014-8-7,84.7,75.6,66.9,59.0,54.6,49.0,69,49,32,29.99,29.87,9,1,12,0.00
2014-8-8,83.1,75.0,65.7,57.0,54.6,51.0,70,50,34,30.07,29.99,5,1,9,0.00
2014-8-9,86.1,77.6,68.3,62.0,57.2,51.0,73,51,31,30.10,30.03,4,1,7,0.00
2014-8-10,87.8,78.8,70.3,63.0,59.4,55.0,73,53,34,30.11,30.06,8,1,8,0.00
2014-8-11,87.0,77.6,70.7,68.0,62.1,55.0,83,61,36,30.12,30.07,5,1,10,0.00
2014-8-12,78.8,74.1,70.0,72.0,68.3,65.0,92,82,72,30.07,29.84,11,2,18,0.24
2014-8-13,84.6,73.6,67.2,71.0,67.5,63.0,97,82,55,29.83,29.62,14,2,19,0.97
2014-8-14,79.6,71.8,63.6,62.0,54.5,51.0,72,56,39,29.87,29.75,6,2,12,0.00
2014-8-15,74.7,68.9,62.5,58.0,51.0,48.0,69,54,45,29.96,29.86,9,1,13,0.00
2014-8-16,80.2,72.0,63.5,64.0,55.9,51.0,74,58,40,29.99,29.89,7,1,13,0.00
2014-8-17,83.9,75.1,68.1,65.0,59.4,54.0,76,59,42,29.89,29.78,6,1,10,0.00
2014-8-20,81.1,72.1,71.8,64.0,59.9,58.0,76,64,47,30.01,29.96,8,2,9,0.00
2014-8-21,80.7,74.1,67.3,68.0,64.1,58.0,90,71,54,30.05,29.98,7,1,13,0.28
2014-8-22,76.9,69.9,65.8,66.0,63.7,57.0,96,81,62,30.03,29.98,5,1,8,0.55
2014-8-23,73.5,68.7,65.4,63.0,61.8,59.0,86,78,68,30.10,30.01,3,0,8,0.01
2014-8-24,80.8,71.1,63.7,62.0,60.9,57.0,90,72,46,30.14,30.09,5,1,10,0.01
2014-8-25,87.5,76.7,65.0,64.0,61.0,59.0,88,61,41,30.15,30.08,3,0,9,0.00
2014-8-26,87.2,77.6,70.0,70.0,66.6,62.0,88,70,48,30.15,30.06,5,1,10,0.00
2014-8-27,91.1,79.6,69.9,69.0,65.8,62.0,83,64,43,30.06,29.84,7,1,11,0.00
2014-8-28,82.1,75.5,67.7,70.0,57.8,49.0,81,56,37,30.03,29.82,12,2,16,0.00
2014-8-29,79.6,70.0,63.5,57.0,53.4,50.0,68,57,40,30.23,30.04,9,2,11,0.00
2014-8-30,78.5,72.4,65.3,67.0,61.8,56.0,82,70,56,30.25,30.13,12,2,13,0.00
2014-8-31,92.2,78.9,72.4,76.0,71.3,66.0,91,78,54,30.14,29.93,7,2,15,0.07
2014-9-1,90.1,80.8,74.6,76.0,72.9,70.0,91,78,53,29.99,29.89,8,2,11,0.07
2014-9-2,94.1,85.1,77.0,75.0,72.6,68.0,90,68,46,29.91,29.78,9,2,17,0.00
2014-9-3,86.6,79.5,72.3,69.0,61.4,55.0,74,56,34,30.08,29.79,9,2,14,0.00
2014-9-4,87.7,78.6,70.4,68.0,62.4,58.0,76,59,39,30.18,30.09,11,2,12,0.00
2014-9-5,86.3,78.5,72.3,75.0,71.9,67.0,91,80,65,30.16,30.00,6,2,14,0.00
2014-9-6,94.8,80.5,68.8,76.0,72.6,65.0,91,78,52,30.00,29.80,8,2,17,0.11
2014-9-7,80.8,72.1,66.3,66.0,58.9,51.0,91,65,44,30.17,29.92,8,1,9,0.11
2014-9-8,75.8,70.2,66.3,64.0,57.8,54.0,82,65,49,30.30,30.17,6,1,12,0.00
2014-9-9,72.3,67.6,64.0,64.0,59.7,54.0,88,76,66,30.26,30.12,6,2,10,0.01
2014-9-10,76.1,68.7,62.1,64.0,61.2,58.0,86,77,58,30.12,30.00,7,1,9,0.00
2014-9-11,83.7,75.4,68.1,71.0,67.1,60.0,88,76,63,30.01,29.80,8,2,12,0.00
2014-9-12,76.8,68.5,61.9,59.0,54.3,51.0,74,61,47,30.16,29.92,6,2,10,0.00
2014-9-13,69.1,63.6,60.9,62.0,57.6,51.0,96,81,66,30.16,30.07,7,1,12,0.24
2014-9-14,72.2,62.1,53.9,53.0,48.8,45.0,82,63,39,30.26,30.13,6,1,11,0.24
2014-9-15,72.1,63.5,54.6,55.0,48.5,43.0,77,60,37,30.23,30.06,4,1,8,0.00
2014-9-16,70.0,63.3,58.7,62.0,57.4,52.0,95,81,67,30.06,29.94,3,0,7,0.38
2014-9-17,74.4,65.1,55.9,55.0,49.4,43.0,87,60,36,30.05,29.93,4,0,8,0.00
2014-9-18,76.5,67.4,57.6,55.0,51.0,45.0,86,58,35,30.08,29.93,10,1,10,0.00
2014-9-19,67.0,60.9,55.5,52.0,49.0,43.0,80,66,53,30.36,30.09,7,2,13,0.00
2014-9-20,74.2,66.8,56.9,66.0,58.6,50.0,90,76,62,30.33,30.04,11,2,18,0.00
2014-9-21,76.0,71.3,66.8,70.0,67.8,65.0,97,88,79,30.03,29.58,4,0,6,0.07
2014-9-22,71.5,65.8,56.2,67.0,52.2,41.0,90,63,47,30.15,29.60,9,2,16,0.00
2014-9-23,72.4,61.2,52.0,55.0,45.8,41.0,79,59,38,30.39,30.15,3,1,9,0.00
2014-9-24,72.3,64.2,57.7,58.0,54.5,49.0,90,72,46,30.54,30.39,5,1,10,0.00
2014-9-25,63.2,60.9,57.9,59.0,56.4,53.0,94,85,71,30.45,30.19,11,2,16,0.04
2014-9-26,77.6,67.0,58.7,57.0,54.0,47.0,85,65,38,30.20,30.13,6,1,9,0.04
2014-9-27,83.4,71.6,61.7,61.0,58.1,56.0,86,64,39,30.20,30.13,4,1,6,0.00
2014-9-28,83.0,72.5,62.7,64.0,61.5,58.0,89,70,44,30.16,29.99,6,1,8,0.00
2014-9-29,79.8,71.8,66.2,64.0,62.1,60.0,85,72,52,29.99,29.88,3,0,6,0.00
2014-9-30,71.6,67.2,62.5,63.0,59.3,52.0,91,76,50,29.97,29.89,5,0,6,0.01
2014-10-1,63.9,62.2,60.5,60.0,59.1,57.0,95,89,83,30.06,29.96,5,1,12,0.04
2014-10-2,67.4,62.6,59.0,58.0,56.8,56.0,95,82,68,30.13,30.05,5,1,9,0.01
2014-10-3,70.0,62.6,56.3,57.0,54.2,50.0,87,75,55,30.10,29.84,9,1,10,0.00
2014-10-4,70.3,63.8,53.1,68.0,57.6,39.0,97,81,56,29.83,29.48,8,2,19,1.21
2014-10-5,61.0,48.6,45.7,42.0,34.1,35.0,70,51,41,29.98,29.69,11,2,14,0.00
2014-10-6,69.2,59.3,46.5,55.0,47.6,41.0,87,67,41,30.07,29.98,15,3,19,0.00
2014-10-7,71.8,67.1,63.8,63.0,57.4,52.0,88,72,52,30.05,29.91,12,3,15,0.01
2014-10-8,73.7,67.3,62.9,64.0,53.5,42.0,93,64,41,29.93,29.78,14,4,17,0.05
2014-10-9,69.4,62.9,55.9,44.0,41.7,39.0,64,47,33,30.04,29.93,9,3,17,0.00
2014-10-10,64.5,57.6,51.7,45.0,39.9,38.0,61,49,38,30.12,30.03,3,0,7,0.00
2014-10-11,59.2,53.7,50.1,52.0,49.3,45.0,96,85,60,30.15,30.01,6,1,8,0.46
2014-10-12,64.1,54.9,48.5,48.0,43.0,36.0,91,67,38,30.31,30.15,6,1,9,0.00
2014-10-13,64.5,59.3,50.8,62.0,53.6,45.0,97,82,68,30.32,30.22,6,0,12,0.09
2014-10-14,74.7,68.2,62.3,66.0,64.2,61.0,97,87,71,30.22,30.09,10,2,20,0.09
2014-10-15,75.9,70.4,66.9,69.0,67.1,65.0,96,89,79,30.09,29.82,11,3,16,0.32
2014-10-16,71.9,67.5,62.0,68.0,63.5,57.0,98,88,66,29.82,29.66,8,2,14,1.29
2014-10-17,73.4,65.1,59.2,58.0,55.1,52.0,87,72,48,29.73,29.65,7,2,13,0.00
2014-10-18,70.6,63.0,56.5,57.0,52.4,44.0,89,70,50,29.70,29.55,9,2,13,0.00
2014-10-19,56.5,51.8,44.3,45.0,36.2,29.0,67,56,39,30.05,29.70,10,3,14,0.00
2014-10-20,61.4,46.7,42.1,48.0,33.2,29.0,71,50,44,30.11,29.95,8,2,11,0.00
2014-10-21,66.1,59.3,52.8,58.0,51.9,47.0,89,77,59,29.95,29.80,4,0,13,0.00
2014-10-22,58.0,54.5,50.2,55.0,52.0,48.0,95,91,78,29.90,29.70,13,4,17,0.42
2014-10-23,53.0,51.3,49.9,49.0,48.4,47.0,94,90,81,29.75,29.66,16,4,18,0.01
2014-10-24,63.5,55.2,50.3,49.0,46.4,42.0,84,73,57,29.82,29.74,6,2,12,0.01
2014-10-25,69.3,59.3,50.6,48.0,43.2,39.0,68,56,44,29.85,29.55,11,2,13,0.00
2014-10-26,63.7,58.3,53.7,49.0,40.9,36.0,67,53,39,29.82,29.52,10,2,13,0.00
2014-10-27,64.4,56.7,49.5,45.0,39.9,38.0,68,54,39,30.01,29.82,7,2,12,0.00
2014-10-28,73.3,60.6,51.5,58.0,50.8,42.0,92,71,48,30.03,29.89,4,0,9,0.00
2014-10-29,73.2,62.2,53.4,60.0,54.2,43.0,92,77,43,29.93,29.80,5,1,11,0.02
2014-10-30,59.5,52.8,47.5,48.0,42.0,36.0,95,69,47,30.00,29.91,7,1,9,0.02
2014-10-31,53.5,49.8,44.9,47.0,40.0,34.0,91,69,60,30.00,29.84,6,2,15,0.02
2014-11-1,48.8,45.1,42.2,47.0,41.0,39.0,92,85,79,29.84,29.73,10,4,18,0.08
2014-11-2,48.1,43.6,40.7,38.0,28.8,20.0,87,58,38,30.03,29.72,16,5,21,0.09
2014-11-3,61.5,45.4,40.0,32.0,23.8,22.0,62,35,25,30.13,30.03,8,2,15,0.00
2014-11-4,69.5,52.7,53.0,43.0,27.8,28.0,55,30,23,30.15,30.00,8,2,14,0.00
2014-11-5,64.2,49.6,55.9,46.0,33.6,33.0,62,42,34,30.12,29.98,6,1,14,0.00
2014-11-6,56.3,50.7,48.0,51.0,47.3,38.0,96,89,51,30.11,29.55,4,0,9,0.02
2014-11-7,53.2,47.2,39.7,47.0,37.2,28.0,91,69,52,29.93,29.55,8,2,16,0.02
2014-11-8,48.4,43.1,36.7,36.0,28.9,26.0,72,58,45,30.03,29.91,7,2,13,0.00
2014-11-9,57.3,50.3,45.6,39.0,37.0,35.0,75,61,44,30.00,29.88,5,1,10,0.00
2014-11-10,61.9,52.1,42.9,47.0,39.8,35.0,84,65,39,30.17,30.00,5,1,8,0.00
2014-11-11,63.6,56.0,46.8,58.0,53.1,46.0,97,90,77,30.13,29.88,5,1,12,0.00
2014-11-12,65.2,57.9,47.7,60.0,52.2,37.0,98,83,50,30.05,29.85,7,1,11,0.00
2014-11-13,49.2,43.2,36.9,38.0,32.9,29.0,93,68,50,30.10,29.96,5,1,8,0.19
2014-11-14,42.6,38.6,35.6,36.0,24.9,17.0,94,61,36,30.17,29.93,8,2,16,0.25
2014-11-15,42.8,37.6,33.5,23.0,20.7,18.0,63,51,39,30.35,30.17,5,1,9,0.00
2014-11-16,44.0,40.6,35.1,35.0,27.0,21.0,79,59,50,30.37,30.10,7,2,11,0.01
2014-11-17,51.7,44.7,39.1,51.0,42.9,36.0,98,93,80,30.09,29.49,9,1,15,0.07
2014-11-18,44.4,31.3,24.2,39.0,13.3,5.0,82,49,33,30.09,29.58,14,5,21,0.07
2014-11-19,34.6,28.2,22.2,19.0,10.4,7.0,56,48,36,30.27,30.06,10,3,19,0.00
2014-11-20,46.3,39.0,31.2,27.0,20.4,10.0,55,48,35,30.05,29.82,12,3,17,0.00
2014-11-21,36.8,31.8,27.8,14.0,11.9,10.0,54,44,35,30.49,30.02,9,2,16,0.00
2014-11-22,43.6,37.1,28.3,25.0,18.3,13.0,63,48,35,30.49,30.19,13,3,15,0.00
2014-11-23,56.5,48.9,43.4,52.0,32.9,24.0,92,56,34,30.20,29.97,10,2,15,0.00
2014-11-24,66.2,60.9,54.4,61.0,57.7,52.0,97,89,78,29.96,29.56,22,3,24,0.46
2014-11-25,66.7,56.9,50.4,59.0,39.9,29.0,82,55,37,30.15,29.71,9,2,16,0.00
2014-11-26,51.0,39.9,34.0,37.0,33.5,30.0,96,81,46,30.18,29.75,10,4,17,0.35
2014-11-27,38.3,36.9,34.7,35.0,32.0,27.0,91,82,72,30.04,29.83,8,1,14,0.38
2014-11-28,37.6,32.8,29.3,27.0,20.8,15.0,77,62,49,30.25,30.04,6,2,14,0.00
2014-11-29,44.0,34.2,28.2,36.0,20.3,14.0,74,57,45,30.35,30.20,5,1,12,0.00
2014-11-30,54.0,49.6,43.6,43.0,37.3,34.0,74,63,51,30.20,30.05,9,2,12,0.00
2014-12-1,63.4,53.5,42.0,50.0,43.4,30.0,82,69,61,30.44,30.05,8,3,14,0.07
2014-12-2,42.4,38.9,35.0,41.0,30.6,19.0,96,74,47,30.61,30.27,13,4,14,0.14
2014-12-3,46.8,43.9,41.2,45.0,40.7,28.0,98,89,60,30.25,29.95,9,2,15,0.28
2014-12-4,46.2,40.7,37.4,29.0,25.6,21.0,71,56,43,30.50,30.19,7,2,10,0.00
2014-12-5,46.1,40.2,35.5,45.0,33.9,24.0,96,79,59,30.57,30.32,9,2,11,0.50
2014-12-6,49.9,45.6,40.1,49.0,44.4,38.0,97,95,91,30.32,30.07,17,2,19,0.61
2014-12-7,41.0,37.0,30.5,38.0,21.6,3.0,92,57,30,30.59,30.17,16,7,28,0.63
2014-12-8,35.9,29.8,25.3,32.0,20.2,1.0,86,69,29,30.66,30.33,14,5,16,0.00
2014-12-9,43.1,40.0,36.0,42.0,38.2,32.0,98,93,84,30.32,29.60,20,6,26,0.03
2014-12-10,41.3,37.0,32.1,39.0,33.7,27.0,93,88,74,29.66,29.56,9,3,14,0.01
2014-12-11,38.3,34.2,31.0,30.0,27.7,25.0,90,77,61,29.86,29.59,12,3,16,0.03
2014-12-12,37.9,34.8,32.1,28.0,24.9,23.0,79,68,61,29.98,29.86,8,2,15,0.00
2014-12-13,35.7,35.0,34.5,29.0,28.0,27.0,76,75,73,29.97,29.95,9,2,12,0.00